Location: Fort Wayne
(41.1310°N, 85.1290°W)
Time: 13:59:53
(UTC-04:00)

COSMOS 2406 - Visible Passes

Search period start: 30 August 2015 00:00
Search period end: 09 September 2015 00:00
Orbit: 844 x 865 km, 71.0° (Epoch: 29 August)

Date Brightness Start Highest point End Pass type
(mag) Time Alt. Az. Time Alt. Az. Time Alt. Az.
31 Aug 5.6 06:37:40 10° SSE 06:42:10 26° ESE 06:46:51 10° NE visible
01 Sep 5.5 06:26:25 10° SSE 06:30:58 26° ESE 06:35:41 10° NE visible
02 Sep 5.4 06:15:10 10° SSE 06:19:45 27° ESE 06:24:30 10° NE visible
03 Sep 5.3 06:03:54 10° SSE 06:08:33 28° ESE 06:13:19 10° NE visible
04 Sep 5.2 05:52:40 10° SSE 05:57:20 28° ESE 06:02:09 10° NE visible
05 Sep 5.1 05:41:25 10° SSE 05:46:07 29° ESE 05:50:59 10° NE visible
06 Sep 5.0 05:30:10 10° SSE 05:34:55 29° ESE 05:39:47 10° NE visible
07 Sep 4.9 05:18:55 10° SSE 05:23:42 30° ESE 05:28:36 10° NE visible
08 Sep 4.8 05:07:40 10° SSE 05:12:29 30° ESE 05:17:25 10° NE visible
